Location: Poughquag
(41.6090°N, 73.6820°W)
Time: 02:41:15
(UTC-04:00)

Transit 2A - Pass Details

Date: 07 June 2020
Orbit: 592 x 967 km, 66.7° (Epoch: 06 July)

Event Time Altitude Azimuth Distance (km) Brightness Sun altitude
Rises 12:23:42 0° 211° (SSW) 3,020 9.3 70.2°
Reaches altitude 10° 12:25:54 10° 213° (SSW) 2,159 8.7 70.3°
Maximum altitude 12:30:50 81° 301° (WNW) 772 7.5 70.6°
Drops below altitude 10° 12:36:24 10° 29° (NNE) 2,427 8.6 70.9°
Sets 12:39:00 0° 30° (NNE) 3,424 9.2 71.0°
